Regional Weather Roundup
Issued by NWS Jackson, KY

Home | Current Version | Previous Version | Graphics & Text | Print | Product List | Glossary On
Versions: 1 2 3 4 5 6 7 8 9 10 11 12 13 14 15 16 17 18 19 20 21 22 23 24 25 26 27 28 29 30 31 32 33 34 35 36 37 38 39 40 41 42 43 44 45 46 47 48 49 50
214
ASUS43 KJKL 271910
RWRJKL

EAST KENTUCKY HOURLY WEATHER ROUNDUP
NATIONAL WEATHER SERVICE JACKSON KY
300 PM EDT WED JUL 27 2016

NOTE: "FAIR" INDICATES FEW OR NO CLOUDS BELOW 12,000 FEET WITH
NO SIGNIFICANT WEATHER AND/OR OBSTRUCTIONS TO VISIBILITY.

* THESE REPORTS ARE NOT UNDER NWS QUALITY CONTROL AND MAY NOT
  REPORT WEATHER SUCH AS PRECIPITATION AND FOG.

KYZ079-080-083-085-087-088-110-112-115-119-120-272000
...EASTERN KENTUCKY...

CITY           SKY/WX    TMP DP  RH WIND       PRES   REMARKS
JACKSON        PTSUNNY   86  75  69 VRB3      30.02F HX  95
LONDON         SUNNY     92  69  47 VRB5      30.01F HX  97
SOMERSET*      CLOUDY    88  70  55 W5        30.02S HX  92
MONTICELLO*    MOSUNNY  N/A N/A N/A W7        30.02F
WILLIAMSBURG*  CLEAR     91  75  59 NW6       30.01F HX 102
MIDDLESBORO*   MOSUNNY   94  73  50 NW5       30.00F HX 103
HARLAN APT*    MOCLDY    90  68  48 CALM      30.03S HX  93
PIKE CO APT*   TSTM      74  74  97 NW9       30.06R
BIG SANDY APT* PTCLDY    78  75  92 CALM      30.02F
MOREHEAD APT*  CLOUDY    88  73  62 N5        30.02S HX  96
ASHLAND*       CLOUDY    88  75  66 CALM      29.97S HX  97
$$

KYZ035-036-041-042-044-050-067-078-099-272000
...CENTRAL KENTUCKY...

CITY           SKY/WX    TMP DP  RH WIND       PRES   REMARKS
MT STERLING*   CLOUDY    88  75  66 W3        30.02S HX  97
FLEMING/MASON* PTSUNNY   87  72  61 NW5       30.01S HX  94
DANVILLE*      CLOUDY    90  73  58 NW7       30.01F HX  98
LEXINGTON      CLOUDY    86  71  60 W8        30.01S HX  91
FRANKFORT      CLOUDY    86  73  65 VRB3      29.99S HX  93
LOUISVILLE     CLOUDY    90  71  53 CALM      29.97F HX  96
LEBANON*         N/A     82  73  74 CALM      30.00F
GLASGOW*       MOSUNNY   91  73  55 W7        29.98F HX 100
BOWLING GREEN  CLOUDY    92  75  57 W7        29.97F HX 103
$$

KYZ091>093-OHZ055-061-077-WVZ005-015-034-035-042-272000
...SOUTHERN OHIO/WEST VIRGINIA...

CITY           SKY/WX    TMP DP  RH WIND       PRES   REMARKS
COVINGTON      PTSUNNY   87  71  58 W7        30.00F HX  93
COLUMBUS       MOSUNNY   89  65  44 CALM      29.97F HX  91
DAYTON         MOSUNNY   88  64  44 SW7       30.00F
WILMINGTON     SUNNY     88  68  51 SW8       29.99F HX  91
HUNTINGTON     PTSUNNY   89  74  60 NE6       29.98F HX  98
CHARLESTON     PTSUNNY   86  72  62 NW5       29.99F HX  92
PINEVILLE*     RAIN      78  71  80 MISG      30.13R
BECKLEY        TSTM      76  72  87 SW6       30.09S
BLUEFIELD      TSTM      72  70  93 SW12      30.13R FOG
LOGAN CO APT*  MOCLDY    79  77  94 CALM      30.05R THUNDER
$$

VAZ002-007-008-TNZ017-027-036-066-071-272000
...SOUTHWEST VIRGINIA/EAST TENNESSEE...

CITY           SKY/WX    TMP DP  RH WIND       PRES   REMARKS
WISE*          PTSUNNY   82  63  51 E3        30.12F
JONESVILLE*    MOCLDY    91  72  52 W3        30.04F HX  98
ABINGDON*        N/A     91  69  48 W8        30.07F HX  95
BRISTOL        MOSUNNY   91  70  49 CALM      30.02F HX  96
MORRISTOWN*    CLEAR     93  70  46 NW9       30.00F HX  99
SEVIERVILLE*     N/A     95  68  41 VRB3      29.98F HX  99
KNOXVILLE      MOSUNNY   94  70  45 W9        29.99F HX 100
OAK RIDGE      SUNNY     96  66  37 W8        30.01F HX  99
CROSSVILLE     CLOUDY    83  71  67 S7        30.07F THUNDER
NASHVILLE      CLOUDY    91  75  59 SW9       29.97F THUNDER HX 101
$$

...KEY TO REMARKS...
VSB - VISIBILITY IN MILES
WCI - WIND CHILL INDEX
HX  - HEAT INDEX

$$




USA.gov is the U.S. government's official web portal to all federal, state and local government web resources and services.